sat.trackr.live / text

‹ back to catalog

STARLINK-3725

NORAD 52123 · 2022-029AM

PAYLOAD ACTIVE UNKNOWN

§ Identity

Operator
Country
US
Launch date
2022-03-19
Launch site
AFETR
Launch vehicle
Mass (kg)
RCS (m²)

Purposes: comms

External: N2YO · Heavens-Above · Gunter

§ Orbital elements

Epoch: 2026-09-19T13:51:46.584864Z

Period
93.79 min
Inclination
53.1588°
Eccentricity
0.0001053
Mean motion
15.35401408 rev/d
Perigee alt
459.0 km
Apogee alt
460.4 km
Semi-major
6,837.9 km
B*
5.4136e-5
RAAN
273.8677°
Arg perigee
76.0803°
Mean anomaly
284.0317°
Rev number
25,026

§ Raw data

STARLINK-37251 52123U 22029AM  26262.57762251  .00001508  00000+0  54136-4 0  99972 52123  53.1588 273.8677 0001053  76.0803 284.0317 15.35401408250269

JSON: /api/v1/satellites/52123 · /tle

For live sub-satellite position, see the globe view (requires WebGL).

§ Visibility from observer

Set your observer location to see the next 7 days of passes ≥ 10°. The values pass through the URL so the page stays shareable.

No JS? Fill the form by hand. The geolocation button needs JavaScript.